Time,TemperatureF,DewpointF,PressureIn,WindDirection,WindDirectionDegrees,WindSpeedMPH,WindSpeedGustMPH,Humidity,HourlyPrecipIn,Conditions,Clouds,dailyrainin,SoftwareType,DateUTC
2013-03-10 00:00:00,29.2,23.2,30.38,West,270,0.7,1.1,78,0.00,,,0.00,WUHU216HW,2013-03-10 05:00:00,
2013-03-10 00:05:00,29.2,23.2,30.38,WNW,293,0.6,0.9,78,0.00,,,0.00,WUHU216HW,2013-03-10 05:05:00,
2013-03-10 00:10:00,29.0,23.0,30.38,WNW,293,0.0,0.9,78,0.00,,,0.00,WUHU216HW,2013-03-10 05:10:00,
2013-03-10 00:15:00,29.0,23.0,30.38,WNW,293,0.0,0.4,78,0.00,,,0.00,WUHU216HW,2013-03-10 05:15:00,
2013-03-10 00:20:00,28.8,22.8,30.38,WNW,293,0.0,0.0,78,0.00,,,0.00,WUHU216HW,2013-03-10 05:20:00,
2013-03-10 00:25:00,28.8,22.8,30.38,WNW,293,0.0,0.0,78,0.00,,,0.00,WUHU216HW,2013-03-10 05:25:00,
2013-03-10 00:30:00,28.8,22.8,30.39,WNW,293,0.0,0.0,78,0.00,,,0.00,WUHU216HW,2013-03-10 05:30:00,
2013-03-10 00:35:00,28.8,23.1,30.39,West,270,0.4,0.7,79,0.00,,,0.00,WUHU216HW,2013-03-10 05:35:00,
2013-03-10 00:40:00,28.6,22.9,30.39,West,270,0.0,0.7,79,0.00,,,0.00,WUHU216HW,2013-03-10 05:40:00,
2013-03-10 00:45:00,28.6,22.9,30.39,West,270,0.4,0.4,79,0.00,,,0.00,WUHU216HW,2013-03-10 05:45:00,
2013-03-10 00:50:00,28.6,22.9,30.39,West,270,0.0,0.4,79,0.00,,,0.00,WUHU216HW,2013-03-10 05:50:00,
2013-03-10 00:55:00,28.4,22.7,30.39,West,270,0.0,0.4,79,0.00,,,0.00,WUHU216HW,2013-03-10 05:55:00,
2013-03-10 01:00:00,28.4,22.7,30.39,ESE,113,0.0,0.0,79,0.00,,,0.00,WUHU216HW,2013-03-10 06:00:00,
2013-03-10 01:05:00,28.3,22.6,30.39,SSE,158,0.0,0.0,79,0.00,,,0.00,WUHU216HW,2013-03-10 06:05:00,
2013-03-10 01:10:00,28.3,22.6,30.39,SSE,158,0.0,0.0,79,0.00,,,0.00,WUHU216HW,2013-03-10 06:10:00,
2013-03-10 01:15:00,28.1,22.4,30.39,SSE,158,0.0,0.0,79,0.00,,,0.00,WUHU216HW,2013-03-10 06:15:00,
2013-03-10 01:20:00,28.1,22.4,30.39,SSE,158,0.0,0.0,79,0.00,,,0.00,WUHU216HW,2013-03-10 06:20:00,
2013-03-10 01:25:00,28.1,22.4,30.40,SW,225,0.0,0.0,79,0.00,,,0.00,WUHU216HW,2013-03-10 06:25:00,
2013-03-10 01:30:00,27.9,22.2,30.40,WNW,293,0.0,0.4,79,0.00,,,0.00,WUHU216HW,2013-03-10 06:30:00,
2013-03-10 01:35:00,27.7,22.0,30.40,NW,315,0.9,1.3,79,0.00,,,0.00,WUHU216HW,2013-03-10 06:35:00,
2013-03-10 01:40:00,27.7,22.0,30.40,NW,315,0.0,1.3,79,0.00,,,0.00,WUHU216HW,2013-03-10 06:40:00,
2013-03-10 01:46:00,27.5,21.8,30.39,NW,315,0.0,0.4,79,0.00,,,0.00,WUHU216HW,2013-03-10 06:46:00,
2013-03-10 01:51:00,27.5,21.8,30.39,NW,315,0.0,0.0,79,0.00,,,0.00,WUHU216HW,2013-03-10 06:51:00,
2013-03-10 01:56:00,27.4,21.7,30.39,NW,315,0.0,0.0,79,0.00,,,0.00,WUHU216HW,2013-03-10 06:56:00,
2013-03-10 03:01:00,27.4,21.7,30.39,NW,315,0.0,0.0,79,0.00,,,0.00,WUHU216HW,2013-03-10 07:01:00,
2013-03-10 03:06:00,27.4,21.7,30.39,West,270,0.5,0.9,79,0.00,,,0.00,WUHU216HW,2013-03-10 07:06:00,
2013-03-10 03:11:00,27.2,21.5,30.39,West,270,0.0,0.9,79,0.00,,,0.00,WUHU216HW,2013-03-10 07:11:00,
2013-03-10 03:16:00,27.0,21.3,30.39,West,270,0.0,0.4,79,0.00,,,0.00,WUHU216HW,2013-03-10 07:16:00,
2013-03-10 03:21:00,27.0,21.3,30.39,West,270,0.0,0.0,79,0.00,,,0.00,WUHU216HW,2013-03-10 07:21:00,
2013-03-10 03:26:00,27.0,21.3,30.39,West,270,0.0,0.0,79,0.00,,,0.00,WUHU216HW,2013-03-10 07:26:00,
2013-03-10 03:31:00,27.0,21.3,30.39,West,270,0.0,0.0,79,0.00,,,0.00,WUHU216HW,2013-03-10 07:31:00,
2013-03-10 03:36:00,26.8,21.1,30.39,SSW,203,0.0,0.0,79,0.00,,,0.00,WUHU216HW,2013-03-10 07:36:00,
2013-03-10 03:41:00,26.8,21.1,30.38,SSW,203,0.0,0.0,79,0.00,,,0.00,WUHU216HW,2013-03-10 07:41:00,
2013-03-10 03:46:00,26.6,20.9,30.38,SSW,203,0.0,0.0,79,0.00,,,0.00,WUHU216HW,2013-03-10 07:46:00,
2013-03-10 03:51:00,26.6,20.9,30.38,SSW,203,0.0,0.0,79,0.00,,,0.00,WUHU216HW,2013-03-10 07:51:00,
2013-03-10 03:56:00,26.6,20.9,30.38,SSW,203,0.0,0.0,79,0.00,,,0.00,WUHU216HW,2013-03-10 07:56:00,
2013-03-10 04:01:00,26.5,20.8,30.38,West,270,0.0,0.0,79,0.00,,,0.00,WUHU216HW,2013-03-10 08:01:00,
2013-03-10 04:06:00,26.5,20.8,30.39,SSE,158,0.7,0.7,79,0.00,,,0.00,WUHU216HW,2013-03-10 08:06:00,
2013-03-10 04:11:00,26.3,20.6,30.39,SSE,158,0.0,0.7,79,0.00,,,0.00,WUHU216HW,2013-03-10 08:11:00,
2013-03-10 04:16:00,26.3,20.9,30.39,SSE,158,0.0,0.0,80,0.00,,,0.00,WUHU216HW,2013-03-10 08:16:00,
2013-03-10 04:21:00,26.3,20.9,30.39,SSE,158,0.0,0.0,80,0.00,,,0.00,WUHU216HW,2013-03-10 08:21:00,
2013-03-10 04:26:00,26.3,20.9,30.39,SSE,158,0.0,0.0,80,0.00,,,0.00,WUHU216HW,2013-03-10 08:26:00,
2013-03-10 04:31:00,26.3,20.9,30.39,SSE,158,0.0,0.0,80,0.00,,,0.00,WUHU216HW,2013-03-10 08:31:00,
2013-03-10 04:36:00,26.3,20.9,30.39,SSE,158,0.0,0.0,80,0.00,,,0.00,WUHU216HW,2013-03-10 08:36:00,
2013-03-10 04:41:00,26.3,20.9,30.39,SSE,158,0.0,0.0,80,0.00,,,0.00,WUHU216HW,2013-03-10 08:41:00,
2013-03-10 04:46:00,26.1,20.7,30.39,SSE,158,0.0,0.0,80,0.00,,,0.00,WUHU216HW,2013-03-10 08:46:00,
2013-03-10 04:51:00,26.1,20.4,30.40,SSE,158,0.0,0.0,79,0.00,,,0.00,WUHU216HW,2013-03-10 08:51:00,
2013-03-10 04:56:00,26.1,20.4,30.40,SSE,158,0.0,0.0,79,0.00,,,0.00,WUHU216HW,2013-03-10 08:56:00,
2013-03-10 05:01:00,25.9,20.2,30.40,SSE,158,0.0,0.0,79,0.00,,,0.00,WUHU216HW,2013-03-10 09:01:00,
2013-03-10 05:06:00,25.7,20.1,30.40,SSE,158,0.0,0.0,79,0.00,,,0.00,WUHU216HW,2013-03-10 09:06:00,
2013-03-10 05:11:00,25.7,20.1,30.39,SSE,158,0.0,0.0,79,0.00,,,0.00,WUHU216HW,2013-03-10 09:11:00,
2013-03-10 05:16:00,25.7,20.1,30.40,SSE,158,0.0,0.0,79,0.00,,,0.00,WUHU216HW,2013-03-10 09:16:00,
2013-03-10 05:21:00,25.6,20.0,30.39,West,270,0.3,0.7,79,0.00,,,0.00,WUHU216HW,2013-03-10 09:21:00,
2013-03-10 05:26:00,25.6,20.0,30.39,West,270,0.0,0.7,79,0.00,,,0.00,WUHU216HW,2013-03-10 09:26:00,
2013-03-10 05:31:00,25.6,20.0,30.40,West,270,0.0,0.0,79,0.00,,,0.00,WUHU216HW,2013-03-10 09:31:00,
2013-03-10 05:36:00,25.6,20.0,30.40,West,270,0.0,0.0,79,0.00,,,0.00,WUHU216HW,2013-03-10 09:36:00,
2013-03-10 05:41:00,25.4,19.8,30.40,West,270,0.9,0.9,79,0.00,,,0.00,WUHU216HW,2013-03-10 09:41:00,
2013-03-10 05:46:00,25.2,19.6,30.40,West,270,0.0,0.9,79,0.00,,,0.00,WUHU216HW,2013-03-10 09:46:00,
2013-03-10 05:51:00,25.0,19.4,30.40,West,270,0.0,0.4,79,0.00,,,0.00,WUHU216HW,2013-03-10 09:51:00,
2013-03-10 05:56:00,25.0,19.4,30.40,West,270,0.0,0.0,79,0.00,,,0.00,WUHU216HW,2013-03-10 09:56:00,
2013-03-10 06:01:00,25.0,19.4,30.40,West,270,0.0,0.0,79,0.00,,,0.00,WUHU216HW,2013-03-10 10:01:00,
2013-03-10 06:06:00,24.8,19.2,30.39,West,270,0.0,0.0,79,0.00,,,0.00,WUHU216HW,2013-03-10 10:06:00,
2013-03-10 06:11:00,24.8,19.2,30.39,SSW,203,0.0,0.0,79,0.00,,,0.00,WUHU216HW,2013-03-10 10:11:00,
2013-03-10 06:16:00,24.8,19.2,30.40,SSW,203,0.0,0.0,79,0.00,,,0.00,WUHU216HW,2013-03-10 10:16:00,
2013-03-10 06:21:00,24.8,19.2,30.39,SSW,203,0.0,0.0,79,0.00,,,0.00,WUHU216HW,2013-03-10 10:21:00,
2013-03-10 06:26:00,24.8,19.2,30.40,SSW,203,0.0,0.0,79,0.00,,,0.00,WUHU216HW,2013-03-10 10:26:00,
2013-03-10 06:31:00,24.7,19.1,30.40,SSW,203,0.0,0.0,79,0.00,,,0.00,WUHU216HW,2013-03-10 10:31:00,
2013-03-10 06:36:00,24.7,19.1,30.40,SSW,203,0.0,0.0,79,0.00,,,0.00,WUHU216HW,2013-03-10 10:36:00,
2013-03-10 06:41:00,24.5,18.9,30.40,SSW,203,0.0,0.0,79,0.00,,,0.00,WUHU216HW,2013-03-10 10:41:00,
2013-03-10 06:46:00,24.5,18.9,30.40,SSW,203,0.0,0.0,79,0.00,,,0.00,WUHU216HW,2013-03-10 10:46:00,
2013-03-10 06:51:00,24.5,18.9,30.40,SSW,203,0.0,0.0,79,0.00,,,0.00,WUHU216HW,2013-03-10 10:51:00,
2013-03-10 06:56:00,24.3,18.7,30.40,SSW,203,0.0,0.0,79,0.00,,,0.00,WUHU216HW,2013-03-10 10:56:00,
2013-03-10 07:01:00,24.3,18.7,30.40,WNW,286,0.8,0.9,79,0.00,,,0.00,WUHU216HW,2013-03-10 11:01:00,
2013-03-10 07:06:00,24.3,18.7,30.40,WNW,293,1.1,1.1,79,0.00,,,0.00,WUHU216HW,2013-03-10 11:06:00,
2013-03-10 07:11:00,24.1,18.5,30.41,WNW,293,0.7,1.1,79,0.00,,,0.00,WUHU216HW,2013-03-10 11:11:00,
2013-03-10 07:16:00,23.9,18.3,30.41,NW,315,0.9,1.1,79,0.00,,,0.00,WUHU216HW,2013-03-10 11:16:00,
2013-03-10 07:21:00,23.8,18.2,30.41,WNW,293,0.9,1.1,79,0.00,,,0.00,WUHU216HW,2013-03-10 11:21:00,
2013-03-10 07:26:00,23.8,18.2,30.41,NW,315,0.0,0.9,79,0.00,,,0.00,WUHU216HW,2013-03-10 11:26:00,
2013-03-10 07:31:00,23.8,18.2,30.42,WNW,293,1.0,1.1,79,0.00,,,0.00,WUHU216HW,2013-03-10 11:31:00,
2013-03-10 07:36:00,23.8,18.2,30.42,WNW,293,1.1,1.1,79,0.00,,,0.00,WUHU216HW,2013-03-10 11:36:00,
2013-03-10 07:41:00,23.8,18.2,30.42,WNW,293,0.2,1.1,79,0.00,,,0.00,WUHU216HW,2013-03-10 11:41:00,
2013-03-10 07:46:00,23.8,18.2,30.43,WNW,293,0.4,0.7,79,0.00,,,0.00,WUHU216HW,2013-03-10 11:46:00,
2013-03-10 07:51:00,23.9,18.6,30.43,WNW,293,0.0,0.4,80,0.00,,,0.00,WUHU216HW,2013-03-10 11:51:00,
2013-03-10 07:56:00,24.1,18.8,30.43,WNW,293,0.0,0.4,80,0.00,,,0.00,WUHU216HW,2013-03-10 11:56:00,
2013-03-10 08:01:00,24.1,18.8,30.43,WNW,293,0.0,0.2,80,0.00,,,0.00,WUHU216HW,2013-03-10 12:01:00,
2013-03-10 08:06:00,24.3,19.0,30.43,WSW,248,0.4,0.4,80,0.00,,,0.00,WUHU216HW,2013-03-10 12:06:00,
2013-03-10 08:11:00,24.7,19.4,30.43,WSW,248,0.0,0.4,80,0.00,,,0.00,WUHU216HW,2013-03-10 12:11:00,
2013-03-10 08:16:00,24.8,19.5,30.43,WSW,248,0.0,0.4,80,0.00,,,0.00,WUHU216HW,2013-03-10 12:16:00,
2013-03-10 08:21:00,24.8,19.7,30.43,WSW,248,0.4,0.4,81,0.00,,,0.00,WUHU216HW,2013-03-10 12:21:00,
2013-03-10 08:26:00,25.2,20.1,30.44,West,270,0.0,0.4,81,0.00,,,0.00,WUHU216HW,2013-03-10 12:26:00,
2013-03-10 08:31:00,25.4,20.3,30.44,WNW,293,0.0,0.2,81,0.00,,,0.00,WUHU216HW,2013-03-10 12:31:00,
2013-03-10 08:36:00,25.6,20.5,30.44,WNW,293,0.0,0.2,81,0.00,,,0.00,WUHU216HW,2013-03-10 12:36:00,
2013-03-10 08:41:00,25.7,20.6,30.44,WNW,293,0.0,0.0,81,0.00,,,0.00,WUHU216HW,2013-03-10 12:41:00,
2013-03-10 08:46:00,25.9,20.8,30.44,SE,135,0.4,0.4,81,0.00,,,0.00,WUHU216HW,2013-03-10 12:46:00,
2013-03-10 08:51:00,26.3,21.2,30.44,SE,135,0.5,0.7,81,0.00,,,0.00,WUHU216HW,2013-03-10 12:51:00,
2013-03-10 08:56:00,26.5,21.4,30.43,SE,135,0.0,0.7,81,0.00,,,0.00,WUHU216HW,2013-03-10 12:56:00,
2013-03-10 09:01:00,26.8,21.7,30.44,SSW,203,0.4,0.4,81,0.00,,,0.00,WUHU216HW,2013-03-10 13:01:00,
2013-03-10 09:06:00,27.0,22.1,30.44,WSW,248,0.0,0.4,82,0.00,,,0.00,WUHU216HW,2013-03-10 13:06:00,
2013-03-10 09:11:00,27.4,22.5,30.44,SSW,203,0.0,0.4,82,0.00,,,0.00,WUHU216HW,2013-03-10 13:11:00,
2013-03-10 09:16:00,27.7,22.8,30.44,West,270,0.4,0.4,82,0.00,,,0.00,WUHU216HW,2013-03-10 13:16:00,
2013-03-10 09:21:00,27.9,23.0,30.44,WNW,293,0.4,0.4,82,0.00,,,0.00,WUHU216HW,2013-03-10 13:21:00,
2013-03-10 09:26:00,28.4,23.8,30.45,West,270,1.3,1.3,83,0.00,,,0.00,WUHU216HW,2013-03-10 13:26:00,
2013-03-10 09:31:00,29.0,24.4,30.45,WNW,293,1.8,3.4,83,0.00,,,0.00,WUHU216HW,2013-03-10 13:31:00,
2013-03-10 09:36:00,29.9,25.5,30.45,NW,315,2.0,3.4,84,0.00,,,0.00,WUHU216HW,2013-03-10 13:36:00,
2013-03-10 09:41:00,30.6,26.5,30.45,West,270,1.5,2.0,85,0.00,,,0.00,WUHU216HW,2013-03-10 13:41:00,
2013-03-10 09:46:00,31.0,26.9,30.45,NNW,338,0.4,1.8,85,0.00,,,0.00,WUHU216HW,2013-03-10 13:46:00,
2013-03-10 09:51:00,31.7,27.6,30.44,North,0,1.8,1.8,85,0.00,,,0.00,WUHU216HW,2013-03-10 13:51:00,
2013-03-10 09:56:00,32.0,27.8,30.44,ENE,68,0.6,1.8,85,0.00,,,0.00,WUHU216HW,2013-03-10 13:56:00,
2013-03-10 10:01:00,32.4,28.2,30.44,NE,45,1.3,1.3,85,0.00,,,0.00,WUHU216HW,2013-03-10 14:01:00,
2013-03-10 10:06:00,32.8,28.6,30.45,North,6,1.4,1.8,85,0.00,,,0.00,WUHU216HW,2013-03-10 14:06:00,
2013-03-10 10:11:00,32.9,28.7,30.44,NE,45,0.2,2.0,85,0.00,,,0.00,WUHU216HW,2013-03-10 14:11:00,
2013-03-10 10:16:00,33.5,29.3,30.44,NW,315,0.7,2.0,85,0.00,,,0.00,WUHU216HW,2013-03-10 14:16:00,
2013-03-10 10:21:00,33.7,29.5,30.44,NE,45,1.1,1.8,85,0.00,,,0.00,WUHU216HW,2013-03-10 14:21:00,
2013-03-10 10:26:00,34.0,29.5,30.44,ENE,77,0.4,2.5,84,0.00,,,0.00,WUHU216HW,2013-03-10 14:26:00,
2013-03-10 10:31:00,34.4,29.9,30.44,North,0,1.1,2.9,84,0.00,,,0.00,WUHU216HW,2013-03-10 14:31:00,
2013-03-10 10:36:00,34.6,29.9,30.44,North,0,1.3,4.0,83,0.00,,,0.00,WUHU216HW,2013-03-10 14:36:00,
2013-03-10 10:41:00,35.1,30.3,30.44,East,90,1.7,4.0,83,0.00,,,0.00,WUHU216HW,2013-03-10 14:41:00,
2013-03-10 10:46:00,35.6,30.6,30.44,NNE,29,3.4,6.0,82,0.00,,,0.00,WUHU216HW,2013-03-10 14:46:00,
2013-03-10 10:51:00,35.8,30.8,30.44,East,90,2.0,6.0,82,0.00,,,0.00,WUHU216HW,2013-03-10 14:51:00,
2013-03-10 10:56:00,36.4,31.3,30.44,East,90,2.0,5.8,82,0.00,,,0.00,WUHU216HW,2013-03-10 14:56:00,
2013-03-10 11:01:00,36.5,31.2,30.44,South,180,1.1,5.8,81,0.00,,,0.00,WUHU216HW,2013-03-10 15:01:00,
2013-03-10 11:06:00,36.7,31.1,30.44,NNE,23,6.7,6.7,80,0.00,,,0.00,WUHU216HW,2013-03-10 15:06:00,
2013-03-10 11:11:00,37.1,31.2,30.44,NE,53,5.2,6.9,79,0.00,,,0.00,WUHU216HW,2013-03-10 15:11:00,
2013-03-10 11:16:00,37.1,30.9,30.44,ENE,68,1.8,6.9,78,0.00,,,0.00,WUHU216HW,2013-03-10 15:16:00,
2013-03-10 11:21:00,37.1,30.9,30.44,NE,45,2.9,3.1,78,0.00,,,0.00,WUHU216HW,2013-03-10 15:21:00,
2013-03-10 11:26:00,37.3,31.1,30.44,ENE,62,2.5,5.6,78,0.00,,,0.00,WUHU216HW,2013-03-10 15:26:00,
2013-03-10 11:31:00,37.4,31.2,30.44,ENE,68,2.2,5.6,78,0.00,,,0.00,WUHU216HW,2013-03-10 15:31:00,
2013-03-10 11:36:00,37.6,31.4,30.43,NE,45,5.8,5.8,78,0.00,,,0.00,WUHU216HW,2013-03-10 15:36:00,
2013-03-10 11:41:00,38.0,31.2,30.43,East,90,1.8,5.8,76,0.00,,,0.00,WUHU216HW,2013-03-10 15:41:00,
2013-03-10 11:46:00,38.2,31.3,30.44,SE,126,2.2,3.6,76,0.00,,,0.00,WUHU216HW,2013-03-10 15:46:00,
2013-03-10 11:51:00,38.2,31.3,30.43,NNE,23,2.3,3.6,76,0.00,,,0.00,WUHU216HW,2013-03-10 15:51:00,
2013-03-10 11:56:00,38.2,31.3,30.43,NNW,339,2.2,5.1,76,0.00,,,0.00,WUHU216HW,2013-03-10 15:56:00,
2013-03-10 12:01:00,38.5,31.3,30.43,SSE,158,2.7,5.1,75,0.00,,,0.00,WUHU216HW,2013-03-10 16:01:00,
2013-03-10 12:06:00,38.5,31.6,30.43,NE,39,3.4,5.1,76,0.00,,,0.00,WUHU216HW,2013-03-10 16:06:00,
2013-03-10 12:11:00,38.7,31.5,30.43,East,90,4.0,5.1,75,0.00,,,0.00,WUHU216HW,2013-03-10 16:11:00,
2013-03-10 12:16:00,39.1,31.9,30.43,SE,135,1.1,6.0,75,0.00,,,0.00,WUHU216HW,2013-03-10 16:16:00,
2013-03-10 12:21:00,39.4,32.2,30.42,East,81,2.7,6.0,75,0.00,,,0.00,WUHU216HW,2013-03-10 16:21:00,
2013-03-10 12:26:00,39.6,32.4,30.42,South,177,0.8,3.1,75,0.00,,,0.00,WUHU216HW,2013-03-10 16:26:00,
2013-03-10 12:31:00,40.0,32.8,30.42,South,180,2.5,2.5,75,0.00,,,0.00,WUHU216HW,2013-03-10 16:31:00,
2013-03-10 12:36:00,40.1,32.9,30.42,ESE,117,1.1,2.5,75,0.00,,,0.00,WUHU216HW,2013-03-10 16:36:00,
2013-03-10 12:41:00,40.3,33.1,30.42,SSE,147,1.7,3.1,75,0.00,,,0.00,WUHU216HW,2013-03-10 16:41:00,
2013-03-10 12:46:00,40.3,32.4,30.42,NE,45,4.5,4.5,73,0.00,,,0.00,WUHU216HW,2013-03-10 16:46:00,
2013-03-10 12:51:00,40.7,32.5,30.42,ESE,113,2.5,6.9,72,0.00,,,0.00,WUHU216HW,2013-03-10 16:51:00,
2013-03-10 12:56:00,40.7,32.5,30.41,East,86,1.9,6.9,72,0.00,,,0.00,WUHU216HW,2013-03-10 16:56:00,
2013-03-10 13:01:00,40.7,32.8,30.41,SE,130,1.9,4.9,73,0.00,,,0.00,WUHU216HW,2013-03-10 17:01:00,
2013-03-10 13:06:00,40.7,32.5,30.41,ESE,113,2.5,4.9,72,0.00,,,0.00,WUHU216HW,2013-03-10 17:06:00,
2013-03-10 13:11:00,40.7,32.5,30.41,SE,135,1.8,2.5,72,0.00,,,0.00,WUHU216HW,2013-03-10 17:11:00,
2013-03-10 13:16:00,40.9,32.7,30.41,ESE,113,3.6,3.6,72,0.00,,,0.00,WUHU216HW,2013-03-10 17:16:00,
2013-03-10 13:21:00,41.0,32.5,30.41,East,90,2.5,3.6,71,0.00,,,0.00,WUHU216HW,2013-03-10 17:21:00,
2013-03-10 13:26:00,41.4,33.2,30.40,South,180,1.3,4.0,72,0.00,,,0.00,WUHU216HW,2013-03-10 17:26:00,
2013-03-10 13:31:00,41.6,33.4,30.40,NE,45,6.3,6.3,72,0.00,,,0.00,WUHU216HW,2013-03-10 17:31:00,
2013-03-10 13:36:00,41.9,33.7,30.40,NNW,338,1.6,6.3,72,0.00,,,0.00,WUHU216HW,2013-03-10 17:36:00,
2013-03-10 13:41:00,42.1,33.9,30.40,WNW,293,1.8,4.5,72,0.00,,,0.00,WUHU216HW,2013-03-10 17:41:00,
2013-03-10 13:46:00,42.5,34.3,30.40,South,180,2.2,3.1,72,0.00,,,0.00,WUHU216HW,2013-03-10 17:46:00,
2013-03-10 13:51:00,42.8,34.2,30.40,South,169,2.3,3.4,71,0.00,,,0.00,WUHU216HW,2013-03-10 17:51:00,
2013-03-10 13:56:00,43.2,34.6,30.40,SE,144,1.7,3.4,71,0.00,,,0.00,WUHU216HW,2013-03-10 17:56:00,
2013-03-10 14:01:00,43.2,33.9,30.40,ESE,123,1.9,2.5,69,0.00,,,0.00,WUHU216HW,2013-03-10 18:01:00,
2013-03-10 14:06:00,43.4,34.1,30.39,SE,135,2.7,2.7,69,0.00,,,0.00,WUHU216HW,2013-03-10 18:06:00,
2013-03-10 14:11:00,43.6,34.3,30.39,South,180,1.8,3.8,69,0.00,,,0.00,WUHU216HW,2013-03-10 18:11:00,
2013-03-10 14:16:00,43.6,34.7,30.39,SSE,151,1.8,3.8,70,0.00,,,0.00,WUHU216HW,2013-03-10 18:16:00,
2013-03-10 14:21:00,43.9,34.9,30.39,SSE,158,1.9,2.7,70,0.00,,,0.00,WUHU216HW,2013-03-10 18:21:00,
2013-03-10 14:26:00,44.1,35.1,30.38,SSE,160,2.2,2.5,70,0.00,,,0.00,WUHU216HW,2013-03-10 18:26:00,
2013-03-10 14:31:00,44.3,35.3,30.38,SSE,151,2.6,3.1,70,0.00,,,0.00,WUHU216HW,2013-03-10 18:31:00,
2013-03-10 14:36:00,44.3,34.6,30.38,East,90,2.0,3.1,68,0.00,,,0.00,WUHU216HW,2013-03-10 18:36:00,
2013-03-10 14:41:00,44.1,34.8,30.39,SE,135,1.8,2.0,69,0.00,,,0.00,WUHU216HW,2013-03-10 18:41:00,
2013-03-10 14:46:00,44.1,34.8,30.38,South,180,0.4,2.5,69,0.00,,,0.00,WUHU216HW,2013-03-10 18:46:00,
2013-03-10 14:51:00,43.9,34.3,30.38,SE,128,1.8,2.5,68,0.00,,,0.00,WUHU216HW,2013-03-10 18:51:00,
2013-03-10 14:56:00,43.9,34.6,30.38,SSE,158,1.7,2.5,69,0.00,,,0.00,WUHU216HW,2013-03-10 18:56:00,
2013-03-10 15:01:00,44.1,34.8,30.38,South,180,2.5,3.4,69,0.00,,,0.00,WUHU216HW,2013-03-10 19:01:00,
2013-03-10 15:06:00,44.1,34.4,30.38,East,99,2.2,3.4,68,0.00,,,0.00,WUHU216HW,2013-03-10 19:06:00,
2013-03-10 15:11:00,43.6,33.3,30.38,SE,135,3.4,3.4,67,0.00,,,0.00,WUHU216HW,2013-03-10 19:11:00,
2013-03-10 15:16:00,43.2,33.2,30.38,SSE,158,3.1,3.4,67,0.00,,,0.00,WUHU216HW,2013-03-10 19:16:00,
2013-03-10 15:21:00,43.2,33.2,30.38,East,90,2.0,3.4,67,0.00,,,0.00,WUHU216HW,2013-03-10 19:21:00,
2013-03-10 15:26:00,42.8,32.9,30.38,SSE,158,2.2,2.9,67,0.00,,,0.00,WUHU216HW,2013-03-10 19:26:00,
2013-03-10 15:31:00,42.8,32.9,30.38,SE,135,2.0,2.5,67,0.00,,,0.00,WUHU216HW,2013-03-10 19:31:00,
2013-03-10 15:36:00,43.0,33.4,30.38,SE,135,1.8,2.5,68,0.00,,,0.00,WUHU216HW,2013-03-10 19:36:00,
2013-03-10 15:41:00,43.2,33.6,30.38,SSE,147,2.3,2.5,68,0.00,,,0.00,WUHU216HW,2013-03-10 19:41:00,
2013-03-10 15:46:00,43.6,34.0,30.38,SE,135,2.5,2.5,68,0.00,,,0.00,WUHU216HW,2013-03-10 19:46:00,
2013-03-10 15:51:00,43.4,33.4,30.38,SE,135,1.3,2.5,67,0.00,,,0.00,WUHU216HW,2013-03-10 19:51:00,
2013-03-10 15:56:00,43.6,34.0,30.37,SSE,163,0.9,2.5,68,0.00,,,0.00,WUHU216HW,2013-03-10 19:56:00,
2013-03-10 16:01:00,43.7,33.7,30.37,ESE,113,3.6,3.6,67,0.00,,,0.00,WUHU216HW,2013-03-10 20:01:00,
2013-03-10 16:06:00,43.9,34.3,30.37,ESE,113,1.8,3.6,68,0.00,,,0.00,WUHU216HW,2013-03-10 20:06:00,
2013-03-10 16:12:00,44.1,34.4,30.37,NE,45,1.8,2.0,68,0.00,,,0.00,WUHU216HW,2013-03-10 20:12:00,
2013-03-10 16:17:00,44.5,35.2,30.37,SSE,158,2.0,2.2,69,0.00,,,0.00,WUHU216HW,2013-03-10 20:17:00,
2013-03-10 16:22:00,44.6,35.3,30.37,SE,141,2.0,2.9,69,0.00,,,0.00,WUHU216HW,2013-03-10 20:22:00,
2013-03-10 16:27:00,44.6,34.6,30.37,South,172,1.8,2.9,67,0.00,,,0.00,WUHU216HW,2013-03-10 20:27:00,
2013-03-10 16:32:00,44.6,34.9,30.37,South,180,2.5,2.9,68,0.00,,,0.00,WUHU216HW,2013-03-10 20:32:00,
2013-03-10 16:37:00,45.0,35.7,30.37,SSE,158,1.8,2.5,69,0.00,,,0.00,WUHU216HW,2013-03-10 20:37:00,
2013-03-10 16:42:00,45.0,35.3,30.36,SSE,147,2.7,2.9,68,0.00,,,0.00,WUHU216HW,2013-03-10 20:42:00,
2013-03-10 16:47:00,45.2,35.5,30.37,SSE,158,2.0,2.9,68,0.00,,,0.00,WUHU216HW,2013-03-10 20:47:00,
2013-03-10 16:52:00,45.4,35.7,30.37,SSE,158,2.5,2.7,68,0.00,,,0.00,WUHU216HW,2013-03-10 20:52:00,
2013-03-10 16:57:00,45.4,35.7,30.36,SSE,158,2.2,2.7,68,0.00,,,0.00,WUHU216HW,2013-03-10 20:57:00,
2013-03-10 17:02:00,45.5,35.8,30.37,SE,135,1.3,2.2,68,0.00,,,0.00,WUHU216HW,2013-03-10 21:02:00,
2013-03-10 17:07:00,45.0,34.6,30.36,East,100,2.0,2.2,67,0.00,,,0.00,WUHU216HW,2013-03-10 21:07:00,
2013-03-10 17:12:00,44.3,34.3,30.36,ESE,113,2.7,2.7,67,0.00,,,0.00,WUHU216HW,2013-03-10 21:12:00,
2013-03-10 17:17:00,44.1,33.7,30.36,SSE,158,1.3,2.7,67,0.00,,,0.00,WUHU216HW,2013-03-10 21:17:00,
2013-03-10 17:22:00,43.6,33.3,30.36,SE,124,1.7,2.5,67,0.00,,,0.00,WUHU216HW,2013-03-10 21:22:00,
2013-03-10 17:27:00,43.2,33.2,30.36,SSE,158,2.2,2.7,67,0.00,,,0.00,WUHU216HW,2013-03-10 21:27:00,
2013-03-10 17:32:00,43.2,33.2,30.36,SSE,158,2.5,2.7,67,0.00,,,0.00,WUHU216HW,2013-03-10 21:32:00,
2013-03-10 17:37:00,43.0,33.0,30.36,SSE,158,1.7,2.7,67,0.00,,,0.00,WUHU216HW,2013-03-10 21:37:00,
2013-03-10 17:42:00,42.8,33.2,30.36,SE,135,1.8,2.7,68,0.00,,,0.00,WUHU216HW,2013-03-10 21:42:00,
2013-03-10 17:47:00,42.7,32.8,30.36,SSE,158,1.1,2.0,67,0.00,,,0.00,WUHU216HW,2013-03-10 21:47:00,
2013-03-10 17:52:00,42.5,32.9,30.36,SE,135,1.8,2.5,68,0.00,,,0.00,WUHU216HW,2013-03-10 21:52:00,
2013-03-10 17:57:00,42.1,32.5,30.36,SE,135,1.8,2.5,68,0.00,,,0.00,WUHU216HW,2013-03-10 21:57:00,
2013-03-10 18:02:00,41.8,32.2,30.36,SE,135,2.2,2.2,68,0.00,,,0.00,WUHU216HW,2013-03-10 22:02:00,
2013-03-10 18:07:00,41.4,31.9,30.35,ESE,123,1.7,2.7,68,0.00,,,0.00,WUHU216HW,2013-03-10 22:07:00,
2013-03-10 18:12:00,41.0,31.8,30.35,ESE,113,1.8,2.7,69,0.00,,,0.00,WUHU216HW,2013-03-10 22:12:00,
2013-03-10 18:17:00,40.7,31.9,30.36,ESE,113,3.4,3.4,70,0.00,,,0.00,WUHU216HW,2013-03-10 22:17:00,
2013-03-10 18:22:00,40.3,31.5,30.35,ESE,113,1.5,3.4,70,0.00,,,0.00,WUHU216HW,2013-03-10 22:22:00,
2013-03-10 18:27:00,40.0,31.5,30.35,SE,135,1.6,2.7,71,0.00,,,0.00,WUHU216HW,2013-03-10 22:27:00,
2013-03-10 18:33:00,39.8,31.3,30.35,SE,124,1.7,2.5,71,0.00,,,0.00,WUHU216HW,2013-03-10 22:33:00,
2013-03-10 18:37:00,39.4,31.3,30.36,ESE,113,1.1,2.2,72,0.00,,,0.00,WUHU216HW,2013-03-10 22:37:00,
2013-03-10 18:42:00,39.2,31.1,30.36,SSE,158,1.6,2.5,72,0.00,,,0.00,WUHU216HW,2013-03-10 22:42:00,
2013-03-10 18:47:00,39.2,31.1,30.36,SE,135,1.9,2.5,72,0.00,,,0.00,WUHU216HW,2013-03-10 22:47:00,
2013-03-10 18:52:00,38.9,31.1,30.36,ESE,113,1.3,2.2,73,0.00,,,0.00,WUHU216HW,2013-03-10 22:52:00,
2013-03-10 18:57:00,38.9,31.1,30.36,SE,135,1.6,1.8,73,0.00,,,0.00,WUHU216HW,2013-03-10 22:57:00,
2013-03-10 19:02:00,38.5,30.7,30.36,SE,135,2.0,2.0,73,0.00,,,0.00,WUHU216HW,2013-03-10 23:02:00,
2013-03-10 19:08:00,38.3,30.2,30.36,SE,135,1.8,2.0,72,0.00,,,0.00,WUHU216HW,2013-03-10 23:08:00,
2013-03-10 19:13:00,38.2,30.4,30.36,ESE,113,2.5,2.5,73,0.00,,,0.00,WUHU216HW,2013-03-10 23:13:00,
2013-03-10 19:18:00,38.0,30.5,30.36,ESE,113,1.8,2.5,74,0.00,,,0.00,WUHU216HW,2013-03-10 23:18:00,
2013-03-10 19:23:00,37.8,30.3,30.36,ESE,113,1.3,2.2,74,0.00,,,0.00,WUHU216HW,2013-03-10 23:23:00,
2013-03-10 19:28:00,37.8,30.3,30.37,ESE,113,1.5,2.9,74,0.00,,,0.00,WUHU216HW,2013-03-10 23:28:00,
2013-03-10 19:33:00,37.6,30.5,30.37,SE,135,2.5,2.9,75,0.00,,,0.00,WUHU216HW,2013-03-10 23:33:00,
2013-03-10 19:38:00,37.6,30.5,30.37,ESE,113,2.0,2.5,75,0.00,,,0.00,WUHU216HW,2013-03-10 23:38:00,
2013-03-10 19:43:00,37.4,30.3,30.37,ESE,113,1.1,2.0,75,0.00,,,0.00,WUHU216HW,2013-03-10 23:43:00,
2013-03-10 19:48:00,37.3,30.2,30.36,ESE,113,1.8,1.8,75,0.00,,,0.00,WUHU216HW,2013-03-10 23:48:00,
2013-03-10 19:53:00,37.1,30.0,30.36,SE,135,1.2,2.2,75,0.00,,,0.00,WUHU216HW,2013-03-10 23:53:00,
2013-03-10 19:58:00,37.1,30.0,30.36,ESE,113,1.3,2.2,75,0.00,,,0.00,WUHU216HW,2013-03-10 23:58:00,
2013-03-10 20:03:00,37.1,30.0,30.36,SE,135,1.6,1.6,75,0.00,,,0.00,WUHU216HW,2013-03-11 00:03:00,
2013-03-10 20:08:00,36.9,30.1,30.37,ESE,113,1.3,1.6,76,0.00,,,0.00,WUHU216HW,2013-03-11 00:08:00,
2013-03-10 20:13:00,36.9,30.1,30.37,SE,145,0.8,1.3,76,0.00,,,0.00,WUHU216HW,2013-03-11 00:13:00,
2013-03-10 20:18:00,36.7,29.9,30.37,SE,135,0.6,1.3,76,0.00,,,0.00,WUHU216HW,2013-03-11 00:18:00,
2013-03-10 20:23:00,36.7,29.9,30.37,SSE,158,0.3,0.7,76,0.00,,,0.00,WUHU216HW,2013-03-11 00:23:00,
2013-03-10 20:28:00,36.7,29.9,30.37,SSE,158,0.0,0.4,76,0.00,,,0.00,WUHU216HW,2013-03-11 00:28:00,
2013-03-10 20:33:00,36.5,29.7,30.37,ESE,113,0.4,0.4,76,0.00,,,0.00,WUHU216HW,2013-03-11 00:33:00,
2013-03-10 20:38:00,36.5,29.7,30.37,SE,135,0.0,0.4,76,0.00,,,0.00,WUHU216HW,2013-03-11 00:38:00,
2013-03-10 20:43:00,36.7,30.2,30.37,SE,135,0.0,0.0,77,0.00,,,0.00,WUHU216HW,2013-03-11 00:43:00,
2013-03-10 20:48:00,36.9,30.4,30.37,SE,135,1.6,1.6,77,0.00,,,0.00,WUHU216HW,2013-03-11 00:48:00,
2013-03-10 20:53:00,36.9,30.7,30.37,SE,135,1.7,1.8,78,0.00,,,0.00,WUHU216HW,2013-03-11 00:53:00,
2013-03-10 20:58:00,36.4,30.2,30.36,SE,135,1.8,1.8,78,0.00,,,0.00,WUHU216HW,2013-03-11 00:58:00,
2013-03-10 21:03:00,36.2,30.0,30.36,SSE,158,0.7,1.8,78,0.00,,,0.00,WUHU216HW,2013-03-11 01:03:00,
2013-03-10 21:08:00,36.2,30.0,30.36,SSE,158,0.0,1.8,78,0.00,,,0.00,WUHU216HW,2013-03-11 01:08:00,
2013-03-10 21:13:00,36.4,30.2,30.35,SE,135,1.8,1.8,78,0.00,,,0.00,WUHU216HW,2013-03-11 01:13:00,
2013-03-10 21:18:00,36.2,30.0,30.35,SSE,158,1.0,2.0,78,0.00,,,0.00,WUHU216HW,2013-03-11 01:18:00,
2013-03-10 21:23:00,36.2,30.0,30.35,SE,135,2.5,2.5,78,0.00,,,0.00,WUHU216HW,2013-03-11 01:23:00,
2013-03-10 21:28:00,36.0,29.8,30.35,SSE,150,1.5,2.7,78,0.00,,,0.00,WUHU216HW,2013-03-11 01:28:00,
2013-03-10 21:33:00,36.0,29.8,30.36,SSE,147,1.2,2.7,78,0.00,,,0.00,WUHU216HW,2013-03-11 01:33:00,
2013-03-10 21:38:00,36.0,29.8,30.35,SE,145,1.2,2.2,78,0.00,,,0.00,WUHU216HW,2013-03-11 01:38:00,
2013-03-10 21:43:00,35.8,29.9,30.35,SSE,158,2.5,2.5,79,0.00,,,0.00,WUHU216HW,2013-03-11 01:43:00,
2013-03-10 21:48:00,35.8,29.9,30.35,SSE,147,2.3,2.5,79,0.00,,,0.00,WUHU216HW,2013-03-11 01:48:00,
2013-03-10 21:53:00,35.6,29.7,30.34,SSE,147,2.3,3.4,79,0.00,,,0.00,WUHU216HW,2013-03-11 01:53:00,
2013-03-10 21:58:00,35.6,30.0,30.35,South,180,2.2,3.4,80,0.00,,,0.00,WUHU216HW,2013-03-11 01:58:00,
2013-03-10 22:03:00,35.6,30.0,30.36,WSW,248,0.4,3.4,80,0.00,,,0.00,WUHU216HW,2013-03-11 02:03:00,
2013-03-10 22:08:00,35.6,30.0,30.36,WSW,248,0.7,1.8,80,0.00,,,0.00,WUHU216HW,2013-03-11 02:08:00,
2013-03-10 22:13:00,35.6,30.0,30.36,SSE,158,1.6,1.8,80,0.00,,,0.00,WUHU216HW,2013-03-11 02:13:00,
2013-03-10 22:18:00,35.6,30.0,30.35,SE,135,2.2,2.2,80,0.00,,,0.00,WUHU216HW,2013-03-11 02:18:00,
2013-03-10 22:23:00,35.6,30.0,30.35,SSE,158,2.2,2.5,80,0.00,,,0.00,WUHU216HW,2013-03-11 02:23:00,
2013-03-10 22:28:00,35.6,30.0,30.35,SSE,149,2.0,2.5,80,0.00,,,0.00,WUHU216HW,2013-03-11 02:28:00,
2013-03-10 22:33:00,35.6,30.0,30.34,SSE,158,2.3,2.7,80,0.00,,,0.00,WUHU216HW,2013-03-11 02:33:00,
2013-03-10 22:38:00,35.6,30.0,30.33,SE,135,2.5,3.4,80,0.00,,,0.00,WUHU216HW,2013-03-11 02:38:00,
2013-03-10 22:43:00,35.6,30.0,30.34,South,169,1.9,3.8,80,0.00,,,0.00,WUHU216HW,2013-03-11 02:43:00,
2013-03-10 22:48:00,35.8,30.2,30.34,SSE,166,2.3,3.8,80,0.00,,,0.00,WUHU216HW,2013-03-11 02:48:00,
2013-03-10 22:53:00,35.8,30.2,30.35,South,180,0.9,2.9,80,0.00,,,0.00,WUHU216HW,2013-03-11 02:53:00,
2013-03-10 22:58:00,36.0,30.4,30.35,SSE,158,1.3,2.5,80,0.00,,,0.00,WUHU216HW,2013-03-11 02:58:00,
2013-03-10 23:03:00,36.0,30.4,30.35,South,180,1.6,1.8,80,0.00,,,0.00,WUHU216HW,2013-03-11 03:03:00,
2013-03-10 23:08:00,35.8,30.2,30.35,SSE,148,1.4,1.8,80,0.00,,,0.00,WUHU216HW,2013-03-11 03:08:00,
2013-03-10 23:13:00,36.0,30.7,30.35,SSE,158,1.8,2.0,81,0.00,,,0.00,WUHU216HW,2013-03-11 03:13:00,
2013-03-10 23:18:00,36.0,30.4,30.35,SSE,158,0.4,2.0,80,0.00,,,0.00,WUHU216HW,2013-03-11 03:18:00,
2013-03-10 23:23:00,36.0,30.4,30.35,SE,142,1.3,1.8,80,0.00,,,0.00,WUHU216HW,2013-03-11 03:23:00,
2013-03-10 23:28:00,35.8,30.2,30.34,SSE,158,1.3,1.8,80,0.00,,,0.00,WUHU216HW,2013-03-11 03:28:00,
2013-03-10 23:33:00,35.8,30.2,30.35,SE,135,1.6,1.6,80,0.00,,,0.00,WUHU216HW,2013-03-11 03:33:00,
2013-03-10 23:38:00,35.6,30.0,30.34,SSE,147,1.2,2.0,80,0.00,,,0.00,WUHU216HW,2013-03-11 03:38:00,
2013-03-10 23:43:00,35.6,30.0,30.33,SSE,158,1.8,2.0,80,0.00,,,0.00,WUHU216HW,2013-03-11 03:43:00,
2013-03-10 23:48:00,35.6,30.0,30.34,SSE,158,1.2,2.2,80,0.00,,,0.00,WUHU216HW,2013-03-11 03:48:00,
2013-03-10 23:53:00,35.5,30.2,30.34,SSE,158,1.3,2.2,81,0.00,,,0.00,WUHU216HW,2013-03-11 03:53:00,
2013-03-10 23:58:00,35.5,29.9,30.34,SSE,158,1.8,1.8,80,0.00,,,0.00,WUHU216HW,2013-03-11 03:58:00,